<?xml version="1.0" encoding="UTF-8" standalone="no" ?>
<gpx xmlns="http://www.topografix.com/GPX/1/1" xmlns:xsi="http://www.w3.org/2001/XMLSchema-instance" xsi:schemaLocation="http://www.topografix.com/GPX/1/1 http://www.topografix.com/GPX/1/1/gpx.xsd" version="1.1" creator="VisuGPX - https://www.visugpx.com">
  <metadata>
    <name>ExploSerradelsmauros</name>
    <desc><![CDATA[Explo pour trouver un passage entre le Llech et Baillestavy]]></desc>
  </metadata>
  <trk>
    <name><![CDATA[exploesthoer1609]]></name>
    <trkseg>
      <trkpt lat="42.60025" lon="2.48747">
        <ele>371.3</ele>
        <time>2012-09-15T05:10:47Z</time>
      </trkpt>
      <trkpt lat="42.59945" lon="2.48845">
        <ele>402.2</ele>
        <time>2012-09-15T05:10:47Z</time>
      </trkpt>
      <trkpt lat="42.59931" lon="2.48916">
        <ele>416.5</ele>
        <time>2012-09-15T05:10:47Z</time>
      </trkpt>
      <trkpt lat="42.59973" lon="2.49052">
        <ele>438.5</ele>
        <time>2012-09-15T05:10:47Z</time>
      </trkpt>
      <trkpt lat="42.59979" lon="2.49161">
        <ele>469.2</ele>
        <time>2012-09-15T05:10:47Z</time>
      </trkpt>
      <trkpt lat="42.60021" lon="2.49274">
        <ele>484.9</ele>
        <time>2012-09-15T05:10:47Z</time>
      </trkpt>
      <trkpt lat="42.6003" lon="2.49384">
        <ele>507.4</ele>
        <time>2012-09-15T05:10:47Z</time>
      </trkpt>
      <trkpt lat="42.59989" lon="2.49489">
        <ele>528.8</ele>
        <time>2012-09-15T05:10:47Z</time>
      </trkpt>
      <trkpt lat="42.5998" lon="2.49553">
        <ele>534.9</ele>
        <time>2012-09-15T05:10:47Z</time>
      </trkpt>
      <trkpt lat="42.59991" lon="2.49647">
        <ele>536.2</ele>
        <time>2012-09-15T05:10:47Z</time>
      </trkpt>
      <trkpt lat="42.5996" lon="2.49719">
        <ele>552.5</ele>
        <time>2012-09-15T05:10:47Z</time>
      </trkpt>
      <trkpt lat="42.59971" lon="2.49843">
        <ele>571.3</ele>
        <time>2012-09-15T05:10:47Z</time>
      </trkpt>
      <trkpt lat="42.60019" lon="2.49941">
        <ele>582.9</ele>
        <time>2012-09-15T05:10:47Z</time>
      </trkpt>
      <trkpt lat="42.60071" lon="2.5002">
        <ele>593</ele>
        <time>2012-09-15T05:10:47Z</time>
      </trkpt>
      <trkpt lat="42.60099" lon="2.50118">
        <ele>618.7</ele>
        <time>2012-09-15T05:10:47Z</time>
      </trkpt>
      <trkpt lat="42.60135" lon="2.50171">
        <ele>625.5</ele>
        <time>2012-09-15T05:10:47Z</time>
      </trkpt>
      <trkpt lat="42.60052" lon="2.50174">
        <ele>647.2</ele>
        <time>2012-09-15T05:10:47Z</time>
      </trkpt>
      <trkpt lat="42.60054" lon="2.50223">
        <ele>656.4</ele>
        <time>2012-09-15T05:10:47Z</time>
      </trkpt>
      <trkpt lat="42.59971" lon="2.50272">
        <ele>682.6</ele>
        <time>2012-09-15T05:10:47Z</time>
      </trkpt>
      <trkpt lat="42.60013" lon="2.50401">
        <ele>683.7</ele>
        <time>2012-09-15T05:10:47Z</time>
      </trkpt>
      <trkpt lat="42.60011" lon="2.50518">
        <ele>705.6</ele>
        <time>2012-09-15T05:10:47Z</time>
      </trkpt>
      <trkpt lat="42.59993" lon="2.50551">
        <ele>714.3</ele>
        <time>2012-09-15T05:10:47Z</time>
      </trkpt>
      <trkpt lat="42.59975" lon="2.50572">
        <ele>717.8</ele>
        <time>2012-09-15T05:10:47Z</time>
      </trkpt>
      <trkpt lat="42.59842" lon="2.50461">
        <ele>743.2</ele>
        <time>2012-09-15T05:10:47Z</time>
      </trkpt>
      <trkpt lat="42.59716" lon="2.50406">
        <ele>757.9</ele>
        <time>2012-09-15T05:10:47Z</time>
      </trkpt>
      <trkpt lat="42.5961" lon="2.50367">
        <ele>776.2</ele>
        <time>2012-09-15T05:10:47Z</time>
      </trkpt>
      <trkpt lat="42.59528" lon="2.50226">
        <ele>807.1</ele>
        <time>2012-09-15T05:10:47Z</time>
      </trkpt>
      <trkpt lat="42.59422" lon="2.5012">
        <ele>822.9</ele>
        <time>2012-09-15T05:10:47Z</time>
      </trkpt>
      <trkpt lat="42.59349" lon="2.49985">
        <ele>831.1</ele>
        <time>2012-09-15T05:10:47Z</time>
      </trkpt>
      <trkpt lat="42.59258" lon="2.49952">
        <ele>859.6</ele>
        <time>2012-09-15T05:10:47Z</time>
      </trkpt>
      <trkpt lat="42.59245" lon="2.49823">
        <ele>851.5</ele>
        <time>2012-09-15T05:10:47Z</time>
      </trkpt>
      <trkpt lat="42.59196" lon="2.497">
        <ele>837</ele>
        <time>2012-09-15T05:10:47Z</time>
      </trkpt>
      <trkpt lat="42.59159" lon="2.49625">
        <ele>840.9</ele>
        <time>2012-09-15T05:10:47Z</time>
      </trkpt>
      <trkpt lat="42.59143" lon="2.49478">
        <ele>814</ele>
        <time>2012-09-15T05:10:47Z</time>
      </trkpt>
      <trkpt lat="42.59121" lon="2.49442">
        <ele>808.7</ele>
        <time>2012-09-15T05:10:47Z</time>
      </trkpt>
      <trkpt lat="42.59037" lon="2.49405">
        <ele>830.2</ele>
        <time>2012-09-15T05:10:47Z</time>
      </trkpt>
      <trkpt lat="42.59013" lon="2.49282">
        <ele>804.4</ele>
        <time>2012-09-15T05:10:47Z</time>
      </trkpt>
      <trkpt lat="42.58971" lon="2.49198">
        <ele>776.3</ele>
        <time>2012-09-15T05:10:47Z</time>
      </trkpt>
      <trkpt lat="42.58944" lon="2.4918">
        <ele>772</ele>
        <time>2012-09-15T05:10:47Z</time>
      </trkpt>
      <trkpt lat="42.58887" lon="2.49195">
        <ele>783.1</ele>
        <time>2012-09-15T05:10:47Z</time>
      </trkpt>
      <trkpt lat="42.58836" lon="2.49114">
        <ele>775.1</ele>
        <time>2012-09-15T05:10:47Z</time>
      </trkpt>
      <trkpt lat="42.5878" lon="2.4906">
        <ele>783.2</ele>
        <time>2012-09-15T05:10:47Z</time>
      </trkpt>
      <trkpt lat="42.58756" lon="2.48973">
        <ele>786.2</ele>
        <time>2012-09-15T05:10:47Z</time>
      </trkpt>
      <trkpt lat="42.58786" lon="2.48947">
        <ele>773.1</ele>
        <time>2012-09-15T05:10:47Z</time>
      </trkpt>
      <trkpt lat="42.58808" lon="2.48955">
        <ele>765</ele>
        <time>2012-09-15T05:10:47Z</time>
      </trkpt>
      <trkpt lat="42.58726" lon="2.48895">
        <ele>790</ele>
        <time>2012-09-15T05:10:47Z</time>
      </trkpt>
      <trkpt lat="42.58666" lon="2.48857">
        <ele>805.7</ele>
        <time>2012-09-15T05:10:47Z</time>
      </trkpt>
      <trkpt lat="42.58633" lon="2.48824">
        <ele>815</ele>
        <time>2012-09-15T05:10:47Z</time>
      </trkpt>
      <trkpt lat="42.586" lon="2.48854">
        <ele>826</ele>
        <time>2012-09-15T05:10:47Z</time>
      </trkpt>
      <trkpt lat="42.58613" lon="2.48816">
        <ele>820.3</ele>
        <time>2012-09-15T05:10:47Z</time>
      </trkpt>
      <trkpt lat="42.58583" lon="2.4872">
        <ele>848.4</ele>
        <time>2012-09-15T05:10:47Z</time>
      </trkpt>
      <trkpt lat="42.58674" lon="2.48738">
        <ele>821.4</ele>
        <time>2012-09-15T05:10:47Z</time>
      </trkpt>
      <trkpt lat="42.58674" lon="2.48619">
        <ele>860.4</ele>
        <time>2012-09-15T05:10:47Z</time>
      </trkpt>
      <trkpt lat="42.58652" lon="2.48597">
        <ele>864.6</ele>
        <time>2012-09-15T05:10:47Z</time>
      </trkpt>
      <trkpt lat="42.5865" lon="2.48556">
        <ele>866.3</ele>
        <time>2012-09-15T05:10:47Z</time>
      </trkpt>
      <trkpt lat="42.58597" lon="2.48511">
        <ele>875.8</ele>
        <time>2012-09-15T05:10:47Z</time>
      </trkpt>
      <trkpt lat="42.58531" lon="2.48548">
        <ele>900.3</ele>
        <time>2012-09-15T05:10:47Z</time>
      </trkpt>
      <trkpt lat="42.58512" lon="2.48485">
        <ele>904.1</ele>
        <time>2012-09-15T05:10:47Z</time>
      </trkpt>
      <trkpt lat="42.58493" lon="2.48518">
        <ele>914.1</ele>
        <time>2012-09-15T05:10:47Z</time>
      </trkpt>
      <trkpt lat="42.58424" lon="2.48466">
        <ele>934.7</ele>
        <time>2012-09-15T05:10:47Z</time>
      </trkpt>
      <trkpt lat="42.58372" lon="2.48373">
        <ele>925.7</ele>
        <time>2012-09-15T05:10:47Z</time>
      </trkpt>
      <trkpt lat="42.5827" lon="2.48414">
        <ele>947.5</ele>
        <time>2012-09-15T05:10:47Z</time>
      </trkpt>
      <trkpt lat="42.58188" lon="2.48406">
        <ele>946.8</ele>
        <time>2012-09-15T05:10:47Z</time>
      </trkpt>
      <trkpt lat="42.5827" lon="2.48432">
        <ele>955.4</ele>
        <time>2012-09-15T05:10:47Z</time>
      </trkpt>
      <trkpt lat="42.5827" lon="2.48466">
        <ele>968.3</ele>
        <time>2012-09-15T05:10:47Z</time>
      </trkpt>
      <trkpt lat="42.58177" lon="2.4851">
        <ele>988.6</ele>
        <time>2012-09-15T05:10:47Z</time>
      </trkpt>
      <trkpt lat="42.58086" lon="2.48547">
        <ele>1005.1</ele>
        <time>2012-09-15T05:10:47Z</time>
      </trkpt>
      <trkpt lat="42.58358" lon="2.48366">
        <ele>924.6</ele>
        <time>2012-09-15T05:10:47Z</time>
      </trkpt>
      <trkpt lat="42.58367" lon="2.48295">
        <ele>905.9</ele>
        <time>2012-09-15T05:10:47Z</time>
      </trkpt>
      <trkpt lat="42.58378" lon="2.48146">
        <ele>869.4</ele>
        <time>2012-09-15T05:10:47Z</time>
      </trkpt>
      <trkpt lat="42.58406" lon="2.48042">
        <ele>842.7</ele>
        <time>2012-09-15T05:10:47Z</time>
      </trkpt>
      <trkpt lat="42.58428" lon="2.47979">
        <ele>817.2</ele>
        <time>2012-09-15T05:10:47Z</time>
      </trkpt>
      <trkpt lat="42.58472" lon="2.4796">
        <ele>819.9</ele>
        <time>2012-09-15T05:10:47Z</time>
      </trkpt>
      <trkpt lat="42.58535" lon="2.48053">
        <ele>837.5</ele>
        <time>2012-09-15T05:10:47Z</time>
      </trkpt>
      <trkpt lat="42.5857" lon="2.48057">
        <ele>821</ele>
        <time>2012-09-15T05:10:47Z</time>
      </trkpt>
      <trkpt lat="42.58617" lon="2.48113">
        <ele>812.6</ele>
        <time>2012-09-15T05:10:47Z</time>
      </trkpt>
      <trkpt lat="42.58661" lon="2.48106">
        <ele>791.4</ele>
        <time>2012-09-15T05:10:47Z</time>
      </trkpt>
      <trkpt lat="42.58686" lon="2.48173">
        <ele>798.4</ele>
        <time>2012-09-15T05:10:47Z</time>
      </trkpt>
      <trkpt lat="42.58719" lon="2.48121">
        <ele>773.4</ele>
        <time>2012-09-15T05:10:47Z</time>
      </trkpt>
      <trkpt lat="42.58711" lon="2.4805">
        <ele>749.5</ele>
        <time>2012-09-15T05:10:47Z</time>
      </trkpt>
      <trkpt lat="42.58741" lon="2.48024">
        <ele>731.2</ele>
        <time>2012-09-15T05:10:47Z</time>
      </trkpt>
      <trkpt lat="42.58744" lon="2.47965">
        <ele>712</ele>
        <time>2012-09-15T05:10:47Z</time>
      </trkpt>
      <trkpt lat="42.58722" lon="2.47913">
        <ele>707.7</ele>
        <time>2012-09-15T05:10:47Z</time>
      </trkpt>
      <trkpt lat="42.58769" lon="2.47864">
        <ele>674.9</ele>
        <time>2012-09-15T05:10:47Z</time>
      </trkpt>
      <trkpt lat="42.58835" lon="2.47935">
        <ele>670.6</ele>
        <time>2012-09-15T05:10:47Z</time>
      </trkpt>
      <trkpt lat="42.58953" lon="2.47954">
        <ele>639.3</ele>
        <time>2012-09-15T05:10:47Z</time>
      </trkpt>
      <trkpt lat="42.58994" lon="2.47924">
        <ele>620.1</ele>
        <time>2012-09-15T05:10:47Z</time>
      </trkpt>
      <trkpt lat="42.59035" lon="2.47932">
        <ele>614.1</ele>
        <time>2012-09-15T05:10:47Z</time>
      </trkpt>
      <trkpt lat="42.59046" lon="2.47854">
        <ele>584.3</ele>
        <time>2012-09-15T05:10:47Z</time>
      </trkpt>
      <trkpt lat="42.59115" lon="2.47914">
        <ele>587.2</ele>
        <time>2012-09-15T05:10:47Z</time>
      </trkpt>
      <trkpt lat="42.59121" lon="2.47794">
        <ele>546</ele>
        <time>2012-09-15T05:10:47Z</time>
      </trkpt>
      <trkpt lat="42.59184" lon="2.4785">
        <ele>541.1</ele>
        <time>2012-09-15T05:10:47Z</time>
      </trkpt>
      <trkpt lat="42.59247" lon="2.47951">
        <ele>522.4</ele>
        <time>2012-09-15T05:10:47Z</time>
      </trkpt>
      <trkpt lat="42.59288" lon="2.47981">
        <ele>506.1</ele>
        <time>2012-09-15T05:10:47Z</time>
      </trkpt>
      <trkpt lat="42.5936" lon="2.47962">
        <ele>481.9</ele>
        <time>2012-09-15T05:10:47Z</time>
      </trkpt>
      <trkpt lat="42.59365" lon="2.48022">
        <ele>490.6</ele>
        <time>2012-09-15T05:10:47Z</time>
      </trkpt>
      <trkpt lat="42.59431" lon="2.48033">
        <ele>475.2</ele>
        <time>2012-09-15T05:10:47Z</time>
      </trkpt>
      <trkpt lat="42.59527" lon="2.48127">
        <ele>467.1</ele>
        <time>2012-09-15T05:10:47Z</time>
      </trkpt>
      <trkpt lat="42.59588" lon="2.48142">
        <ele>453.4</ele>
        <time>2012-09-15T05:10:47Z</time>
      </trkpt>
      <trkpt lat="42.59678" lon="2.48242">
        <ele>433.3</ele>
        <time>2012-09-15T05:10:47Z</time>
      </trkpt>
      <trkpt lat="42.59722" lon="2.48332">
        <ele>423.7</ele>
        <time>2012-09-15T05:10:47Z</time>
      </trkpt>
      <trkpt lat="42.59774" lon="2.48343">
        <ele>408.5</ele>
        <time>2012-09-15T05:10:47Z</time>
      </trkpt>
      <trkpt lat="42.59829" lon="2.4834">
        <ele>395.3</ele>
        <time>2012-09-15T05:10:47Z</time>
      </trkpt>
      <trkpt lat="42.59898" lon="2.48418">
        <ele>389.1</ele>
        <time>2012-09-15T05:10:47Z</time>
      </trkpt>
      <trkpt lat="42.59906" lon="2.48503">
        <ele>386.6</ele>
        <time>2012-09-15T05:10:47Z</time>
      </trkpt>
      <trkpt lat="42.59931" lon="2.48578">
        <ele>381</ele>
        <time>2012-09-15T05:10:47Z</time>
      </trkpt>
      <trkpt lat="42.60016" lon="2.48723">
        <ele>372.2</ele>
        <time>2012-09-15T05:10:47Z</time>
      </trkpt>
    </trkseg>
  </trk>
</gpx>